User: anonymous   Login
Location: Newark
(13.8117°N, 3.6025°W)
Time: 03:18:15
(UTC+00:00)
Language:

Courier 1B - Orbit

View from above orbital plane
View from above orbital plane
View from above satellite
View from above satellite

Ground track
Ground track

The orbit data is extracted from the following two-line orbital elements,

1    58U 60013A   20220.36652915 +.00000079 +00000-0 -86850-5 0  9995
2    58 028.3253 196.3349 0165083 130.7742 230.7255 13.46323228945488
Epoch (UTC): 07 August 2020 08:47:48
Eccentricity: 0.0165083
inclination: 28.3253°
perigee height: 962 km
apogee height: 1209 km
right ascension of ascending node: 196.3349°
argument of perigee: 130.7742°
revolutions per day: 13.46323228
mean anomaly at epoch: 230.7255°
orbit number at epoch: 94548

The dashed part of the orbit path shows where the satellite is in the earth's shadow,  

DLR